User: anonymous   Login
Location: La Pernelle
(49.6188°N, 1.2999°W)
Time: 02:26:52
(UTC+00:00)
Language:

Cosmos 1624 Rocket - Orbit

View from above orbital plane
View from above orbital plane
View from above satellite
View from above satellite

Ground track
Ground track

The orbit data is extracted from the following two-line orbital elements,

1 15483U 85006B   21269.53722649  .00000079  00000-0  36050-4 0  9992
2 15483  74.0484   7.5179 0019585 321.0177  50.0682 14.36386059920869
Epoch (UTC): 26 September 2021 12:53:36
Eccentricity: 0.0019585
inclination: 74.0484°
perigee height: 756 km
apogee height: 784 km
right ascension of ascending node: 7.5179°
argument of perigee: 321.0177°
revolutions per day: 14.36386059
mean anomaly at epoch: 50.0682°
orbit number at epoch: 92086

The dashed part of the orbit path shows where the satellite is in the earth's shadow,  

DLR